Terminal Aerodrome Forecast
Issued by NWS Missoula, MT

Home | Current Version | Previous Version | Text Only | Print | Product List | Glossary On
Versions: 1 2 3 4 5 6 7 8 9 10 11 12 13 14 15 16 17 18 19 20 21 22 23
793
FTUS45 KMSO 122320
TAFMSO
TAF
KMSO 122320Z 1300/1324 VRB03KT 6SM BR BKN050 OVC100
     FM130500 VRB03KT 4SM BR VCFG SCT015 OVC050
     FM130900 28005KT 5SM -RA BR OVC025
     FM131300 30009KT 4SM -SNRA BR OVC015
     FM131700 30015G25KT P6SM VCSH OVC050=

USA.gov is the U.S. government's official web portal to all federal, state and local government web resources and services.